Location: Chamerau
(49.1969°N, 12.7525°E)
Time: 08:55:59
(UTC+00:00)

SPOT 3 Rocket - Pass Details

Date: 18 September 2020
Orbit: 780 x 794 km, 98.7° (Epoch: 27 October)

Event Time Altitude Azimuth Distance (km) Brightness Sun altitude
Exits shadow 20:03:37 31° 213° (SSW) 1,346 4.7 -26.4°
Maximum altitude 20:05:31 44° 261° (W) 1,078 4.5 -26.6°
Drops below altitude 10° 20:10:27 10° 333° (NNW) 2,345 6.8 -27.3°
Sets 20:12:54 0° 341° (NNW) 3,279 7.7 -27.6°
